TimeEDT,TemperatureF,Dew PointF,Humidity,Sea Level PressureIn,VisibilityMPH,Wind Direction,Wind SpeedMPH,Gust SpeedMPH,PrecipitationIn,Events,Conditions,WindDirDegrees,DateUTC
12:15 AM,54.0,50.4,88,29.93,10.0,WNW,6.9,-,N/A,,Overcast,300,2013-09-03 04:15:00
12:34 AM,54.0,50.0,86,29.93,10.0,WNW,6.9,-,N/A,,Overcast,300,2013-09-03 04:34:00
12:55 AM,54.5,50.2,85,29.93,10.0,WNW,5.8,-,N/A,,Overcast,290,2013-09-03 04:55:00
1:14 AM,53.4,49.8,88,29.93,10.0,WNW,8.1,-,N/A,,Mostly Cloudy,290,2013-09-03 05:14:00
1:34 AM,53.1,49.6,88,29.93,10.0,WNW,8.1,-,N/A,,Scattered Clouds,290,2013-09-03 05:34:00
1:55 AM,53.4,50.0,88,29.94,10.0,WNW,5.8,-,N/A,,Mostly Cloudy,300,2013-09-03 05:55:00
2:14 AM,53.6,50.0,88,29.94,10.0,WNW,9.2,-,N/A,,Overcast,300,2013-09-03 06:14:00
2:35 AM,53.6,50.0,88,29.94,10.0,WNW,8.1,-,N/A,,Mostly Cloudy,300,2013-09-03 06:35:00
2:55 AM,53.1,50.0,89,29.94,10.0,WNW,8.1,-,N/A,,Scattered Clouds,300,2013-09-03 06:55:00
3:14 AM,53.1,50.0,89,29.94,10.0,WNW,6.9,-,N/A,,Clear,300,2013-09-03 07:14:00
3:35 AM,52.7,50.0,91,29.94,10.0,NW,8.1,-,N/A,,Clear,310,2013-09-03 07:35:00
3:55 AM,52.0,50.0,93,29.94,10.0,WNW,6.9,-,N/A,,Clear,300,2013-09-03 07:55:00
4:14 AM,51.8,49.8,93,29.94,10.0,WNW,6.9,-,N/A,,Clear,290,2013-09-03 08:14:00
4:35 AM,50.9,49.3,94,29.94,10.0,West,6.9,-,N/A,,Clear,280,2013-09-03 08:35:00
4:54 AM,49.1,48.0,96,29.94,10.0,West,5.8,-,N/A,,Clear,280,2013-09-03 08:54:00
5:14 AM,48.4,47.8,98,29.94,10.0,West,5.8,-,N/A,,Clear,280,2013-09-03 09:14:00
5:35 AM,49.1,48.4,97,29.94,10.0,West,8.1,-,N/A,,Clear,280,2013-09-03 09:35:00
5:54 AM,50.0,48.9,96,29.94,10.0,WNW,8.1,-,N/A,,Clear,290,2013-09-03 09:54:00
6:15 AM,50.0,48.9,96,29.94,10.0,WNW,6.9,-,N/A,,Clear,290,2013-09-03 10:15:00
6:35 AM,50.0,48.9,96,29.94,10.0,West,6.9,-,N/A,,Clear,280,2013-09-03 10:35:00
6:55 AM,49.1,48.2,97,29.95,10.0,West,6.9,-,N/A,,Clear,280,2013-09-03 10:55:00
7:14 AM,50.0,48.7,95,29.95,10.0,West,6.9,-,N/A,,Clear,280,2013-09-03 11:14:00
7:35 AM,49.3,48.6,97,29.96,10.0,West,6.9,-,N/A,,Clear,270,2013-09-03 11:35:00
7:54 AM,50.4,49.6,97,29.97,10.0,West,8.1,-,N/A,,Clear,270,2013-09-03 11:54:00
8:15 AM,51.8,50.5,95,29.97,10.0,West,8.1,-,N/A,,Clear,280,2013-09-03 12:15:00
8:35 AM,53.1,51.6,95,29.97,10.0,West,9.2,-,N/A,,Clear,280,2013-09-03 12:35:00
8:54 AM,54.5,52.3,92,29.98,10.0,West,9.2,-,N/A,,Clear,280,2013-09-03 12:54:00
9:15 AM,56.1,52.9,89,29.97,10.0,West,9.2,-,N/A,,Clear,280,2013-09-03 13:15:00
9:35 AM,57.9,53.2,84,29.98,10.0,West,8.1,-,N/A,,Clear,280,2013-09-03 13:35:00
9:54 AM,59.0,52.9,80,29.97,10.0,WNW,8.1,-,N/A,,Clear,300,2013-09-03 13:54:00
10:15 AM,60.1,53.4,79,29.98,10.0,West,8.1,-,N/A,,Clear,280,2013-09-03 14:15:00
10:35 AM,61.5,53.6,75,29.98,10.0,WNW,9.2,-,N/A,,Clear,290,2013-09-03 14:35:00
10:54 AM,62.2,52.9,71,29.98,10.0,WNW,8.1,-,N/A,,Clear,290,2013-09-03 14:54:00
11:15 AM,63.9,51.1,63,29.98,10.0,WNW,6.9,16.1,N/A,,Clear,290,2013-09-03 15:15:00
11:34 AM,64.4,50.5,61,29.98,10.0,NW,8.1,-,N/A,,Clear,310,2013-09-03 15:34:00
11:54 AM,66.2,51.8,60,29.98,10.0,West,8.1,-,N/A,,Clear,280,2013-09-03 15:54:00
12:15 PM,66.6,52.2,60,29.97,10.0,West,10.4,-,N/A,,Clear,280,2013-09-03 16:15:00
12:34 PM,67.5,51.8,57,29.97,10.0,NNW,6.9,-,N/A,,Clear,340,2013-09-03 16:34:00
12:55 PM,68.0,51.4,55,29.96,10.0,West,11.5,17.3,N/A,,Scattered Clouds,270,2013-09-03 16:55:00
1:15 PM,68.2,50.7,54,29.96,10.0,West,9.2,16.1,N/A,,Scattered Clouds,280,2013-09-03 17:15:00
1:34 PM,69.4,52.3,54,29.96,10.0,West,5.8,-,N/A,,Clear,280,2013-09-03 17:34:00
1:55 PM,69.6,51.1,52,29.96,10.0,WNW,9.2,-,N/A,,Scattered Clouds,290,2013-09-03 17:55:00
2:14 PM,69.4,50.7,51,29.96,10.0,West,11.5,17.3,N/A,,Clear,270,2013-09-03 18:14:00
2:35 PM,69.8,51.1,51,29.95,10.0,WSW,5.8,-,N/A,,Clear,250,2013-09-03 18:35:00
2:54 PM,70.5,51.3,50,29.95,10.0,WNW,6.9,-,N/A,,Clear,300,2013-09-03 18:54:00
3:15 PM,70.3,50.2,49,29.93,10.0,WSW,10.4,-,N/A,,Clear,250,2013-09-03 19:15:00
3:34 PM,70.7,50.2,48,29.93,10.0,WNW,6.9,-,N/A,,Clear,290,2013-09-03 19:34:00
3:55 PM,70.7,51.3,50,29.93,10.0,West,8.1,-,N/A,,Clear,260,2013-09-03 19:55:00
4:15 PM,70.9,50.4,48,29.93,10.0,WNW,9.2,-,N/A,,Clear,290,2013-09-03 20:15:00
4:34 PM,70.5,48.2,45,29.93,10.0,West,11.5,17.3,N/A,,Clear,260,2013-09-03 20:34:00
4:55 PM,70.7,49.5,47,29.92,10.0,WNW,10.4,-,N/A,,Clear,290,2013-09-03 20:55:00
5:14 PM,70.9,49.5,47,29.91,10.0,WSW,10.4,-,N/A,,Clear,240,2013-09-03 21:14:00
5:34 PM,70.7,49.6,47,29.91,10.0,WSW,9.2,-,N/A,,Clear,250,2013-09-03 21:34:00
5:55 PM,70.9,51.1,49,29.91,10.0,West,8.1,-,N/A,,Clear,260,2013-09-03 21:55:00
6:14 PM,70.5,51.6,51,29.91,10.0,West,6.9,-,N/A,,Clear,260,2013-09-03 22:14:00
6:35 PM,70.0,51.8,52,29.90,10.0,West,5.8,-,N/A,,Clear,260,2013-09-03 22:35:00
6:54 PM,68.4,56.1,65,29.91,10.0,SSW,8.1,-,N/A,,Clear,200,2013-09-03 22:54:00
7:15 PM,67.1,56.3,68,29.90,10.0,SSW,9.2,-,N/A,,Clear,200,2013-09-03 23:15:00
7:35 PM,65.7,56.1,71,29.90,10.0,South,5.8,-,N/A,,Clear,190,2013-09-03 23:35:00
7:54 PM,64.4,56.1,74,29.90,10.0,South,6.9,-,N/A,,Clear,190,2013-09-03 23:54:00
8:15 PM,62.6,55.9,79,29.89,10.0,SSW,8.1,-,N/A,,Clear,200,2013-09-04 00:15:00
8:34 PM,61.0,55.6,82,29.90,10.0,SSW,6.9,-,N/A,,Clear,200,2013-09-04 00:34:00
8:54 PM,60.1,55.9,86,29.90,10.0,SSW,8.1,-,N/A,,Clear,200,2013-09-04 00:54:00
9:15 PM,59.9,56.1,87,29.90,10.0,SSW,8.1,-,N/A,,Clear,210,2013-09-04 01:15:00
9:34 PM,60.1,56.5,88,29.89,10.0,SSW,10.4,-,N/A,,Clear,210,2013-09-04 01:34:00
9:55 PM,59.9,56.8,90,29.89,10.0,SW,8.1,-,N/A,,Clear,220,2013-09-04 01:55:00
10:15 PM,59.9,56.7,89,29.89,10.0,SSW,10.4,-,N/A,,Clear,210,2013-09-04 02:15:00
10:34 PM,59.9,56.7,89,29.89,10.0,SW,10.4,-,N/A,,Clear,220,2013-09-04 02:34:00
10:55 PM,59.9,56.3,88,29.88,10.0,SW,11.5,-,N/A,,Clear,220,2013-09-04 02:55:00
11:15 PM,59.5,55.9,88,29.89,10.0,SW,10.4,-,N/A,,Clear,220,2013-09-04 03:15:00
11:34 PM,59.0,55.4,88,29.88,10.0,SW,9.2,-,N/A,,Clear,220,2013-09-04 03:34:00
11:55 PM,59.2,54.7,85,29.88,10.0,SW,10.4,-,N/A,,Clear,220,2013-09-04 03:55:00